sat.trackr.live / text

‹ back to catalog

STARLINK-31366

NORAD 59403 · 2024-064F

PAYLOAD ACTIVE UNKNOWN

§ Identity

Operator
Country
US
Launch date
2024-04-05
Launch site
AFETR
Launch vehicle
Mass (kg)
RCS (m²)

Purposes: comms

External: N2YO · Heavens-Above · Gunter

§ Orbital elements

Epoch: 2026-09-21T15:21:51.914880Z

Period
94.27 min
Inclination
43.0032°
Eccentricity
0.0000788
Mean motion
15.27547703 rev/d
Perigee alt
482.6 km
Apogee alt
483.7 km
Semi-major
6,861.3 km
B*
4.5488e-4
RAAN
29.5654°
Arg perigee
300.7624°
Mean anomaly
59.3150°
Rev number
13,919

§ Raw data

STARLINK-313661 59403U 24064F   26264.64018420  .00012264  00000+0  45488-3 0  99982 59403  43.0032  29.5654 0000788 300.7624  59.3150 15.27547703139198

JSON: /api/v1/satellites/59403 · /tle

For live sub-satellite position, see the globe view (requires WebGL).

§ Visibility from observer

Set your observer location to see the next 7 days of passes ≥ 10°. The values pass through the URL so the page stays shareable.

No JS? Fill the form by hand. The geolocation button needs JavaScript.